YO8KGT-13 Weather Reports


Display with metric or nautical units.
time (UTC)temp
F
wind
direction
speed
MPH
gust
MPH
rain 1hr
in
rain 24hr
in
rain mn
in
humidity
%
barometer
mb
20260503002422 37 45 0.0 0.0 0.00 0.00 0.00 72 953.0
20260503001919 37 45 0.0 0.0 0.00 0.00 0.00 72 953.0
20260503001420 37 45 0.0 0.0 0.00 0.00 0.00 72 953.0
20260503000921 37 45 0.0 0.0 0.00 0.00 0.00 72 953.0
20260503000425 37 45 0.0 0.0 0.00 0.00 0.00 71 953.0
20260502235929 37 45 0.0 0.0 0.00 0.00 0.00 71 953.0
20260502235436 38 45 0.0 0.0 0.00 0.00 0.00 71 953.0
20260502234919 38 45 0.0 0.0 0.00 0.00 0.00 71 953.0
20260502233919 38 45 0.0 0.0 0.00 0.00 0.00 71 953.0
20260502233418 38 45 0.0 0.0 0.00 0.00 0.00 71 953.0
20260502232923 38 45 0.0 0.0 0.00 0.00 0.00 71 953.0
20260502232418 38 45 0.0 0.0 0.00 0.00 0.00 70 953.0
20260502230935 38 45 0.0 0.0 0.00 0.00 0.00 70 953.0
20260502230420 38 45 0.0 0.0 0.00 0.00 0.00 69 953.0
20260502225919 38 45 0.0 0.0 0.00 0.00 0.00 69 953.0
20260502224420 38 45 0.0 0.0 0.00 0.00 0.00 69 953.0
20260502222930 39 45 0.0 0.0 0.00 0.00 0.00 68 954.0
20260502222427 39 45 0.0 0.0 0.00 0.00 0.00 68 954.0
20260502221418 39 45 0.0 0.0 0.00 0.00 0.00 67 954.0
20260502220942 39 45 0.0 0.0 0.00 0.00 0.00 67 954.0
20260502220439 39 45 0.0 0.0 0.00 0.00 0.00 66 954.0
20260502215922 39 45 0.0 0.0 0.00 0.00 0.00 66 954.0
20260502214918 40 45 0.0 0.0 0.00 0.00 0.00 65 954.0
20260502214426 40 45 0.0 0.0 0.00 0.00 0.00 65 954.0
20260502212920 40 45 0.0 0.0 0.00 0.00 0.00 64 954.0
20260502212437 40 45 0.0 0.0 0.00 0.00 0.00 64 954.0
20260502211940 41 45 0.0 0.0 0.00 0.00 0.00 64 954.0
20260502211419 41 45 0.0 0.0 0.00 0.00 0.00 64 954.0
20260502210923 41 45 0.0 0.0 0.00 0.00 0.00 64 954.0
20260502205926 41 45 0.0 0.0 0.00 0.00 0.00 63 954.0
20260502205434 42 45 0.0 0.0 0.00 0.00 0.00 63 954.0
20260502204424 42 45 0.0 0.0 0.00 0.00 0.00 62 954.0
20260502203939 42 45 0.0 0.0 0.00 0.00 0.00 62 954.0
20260502203443 42 45 0.0 0.0 0.00 0.00 0.00 61 954.0
20260502202919 43 45 0.0 0.0 0.00 0.00 0.00 61 954.0
20260502202419 43 45 0.0 0.0 0.00 0.00 0.00 61 954.0
20260502201918 43 45 0.0 0.0 0.00 0.00 0.00 61 954.0
20260502201426 43 45 0.0 0.0 0.00 0.00 0.00 60 954.0
20260502200928 43 45 0.0 0.0 0.00 0.00 0.00 60 954.0
20260502200423 43 45 0.0 0.0 0.00 0.00 0.00 60 954.0
20260502195918 43 45 0.0 0.0 0.00 0.00 0.00 60 954.0
20260502195437 43 45 0.0 0.0 0.00 0.00 0.00 60 954.0
20260502194941 44 45 0.0 0.0 0.00 0.00 0.00 59 954.0
20260502193920 44 45 0.0 0.0 0.00 0.00 0.00 59 954.0
20260502193417 44 45 0.0 0.0 0.00 0.00 0.00 58 954.0
20260502192928 44 45 0.0 0.0 0.00 0.00 0.00 58 954.0
20260502192423 44 45 0.0 0.0 0.00 0.00 0.00 57 954.0
20260502191919 45 45 0.0 0.0 0.00 0.00 0.00 57 954.0
20260502190936 45 45 0.0 0.0 0.00 0.00 0.00 56 954.0
20260502190435 45 45 0.0 0.0 0.00 0.00 0.00 56 954.0
20260502185919 46 45 0.0 0.0 0.00 0.00 0.00 55 954.0
20260502185418 46 45 0.0 0.0 0.00 0.00 0.00 55 954.0
20260502184918 46 45 0.0 0.0 0.00 0.00 0.00 55 954.0
20260502184426 46 45 0.0 0.0 0.00 0.00 0.00 55 954.0
20260502183924 46 45 0.0 0.0 0.00 0.00 0.00 55 953.0
20260502183418 47 45 0.0 0.0 0.00 0.00 0.00 54 953.0
20260502182918 46 45 0.0 0.0 0.00 0.00 0.00 54 953.0
20260502181935 46 45 0.0 0.0 0.00 0.00 0.00 53 953.0
20260502181419 47 45 0.0 0.0 0.00 0.00 0.00 53 953.0
20260502180919 47 45 0.0 0.0 0.00 0.00 0.00 53 953.0
20260502180418 47 45 0.0 0.0 0.00 0.00 0.00 52 953.0
20260502170421 51 45 0.0 0.0 0.00 0.00 0.00 49 953.0
20260502163418 53 45 0.0 4.0 0.00 0.00 0.00 47 953.0
20260502162920 53 45 0.0 2.0 0.00 0.00 0.00 47 953.0
20260502161918 54 45 0.0 3.0 0.00 0.00 0.00 46 953.0
20260502160933 54 45 0.0 6.0 0.00 0.00 0.00 45 953.0
20260502160435 55 45 5.0 6.0 0.00 0.00 0.00 44 953.0
20260502151932 57 45 3.0 9.0 0.00 0.00 0.00 43 953.0
20260502151419 57 45 4.0 9.0 0.00 0.00 0.00 43 953.0
20260502150918 58 45 0.0 5.0 0.00 0.00 0.00 43 953.0
20260502150418 58 45 2.0 5.0 0.00 0.00 0.00 43 953.0
20260502130427 62 45 3.0 6.0 0.00 0.00 0.00 41 954.0
20260502123421 60 22 3.0 6.0 0.00 0.00 0.00 42 954.0
20260502122920 59 45 4.0 6.0 0.00 0.00 0.00 43 954.0
20260502121931 59 45 4.0 15.0 0.00 0.00 0.00 43 954.0
20260502120924 60 45 15.0 15.0 0.00 0.00 0.00 41 954.0
20260502115920 60 45 3.0 6.0 0.00 0.00 0.00 42 954.0
20260502115417 61 45 2.0 6.0 0.00 0.00 0.00 43 954.0
20260502114919 60 45 2.0 7.0 0.00 0.00 0.00 43 954.0
20260502114418 58 45 0.0 8.0 0.00 0.00 0.00 44 954.0
20260502113928 57 45 7.0 8.0 0.00 0.00 0.00 45 954.0
20260502113429 57 45 3.0 8.0 0.00 0.00 0.00 45 954.0
20260502112919 57 45 4.0 11.0 0.00 0.00 0.00 44 954.0
20260502111418 58 45 10.0 10.0 0.00 0.00 0.00 44 954.0
20260502110918 59 45 7.0 9.0 0.00 0.00 0.00 44 954.0
20260502110420 60 45 7.0 9.0 0.00 0.00 0.00 44 954.0
20260502105430 58 45 4.0 7.0 0.00 0.00 0.00 46 954.0
20260502104419 58 45 5.0 8.0 0.00 0.00 0.00 47 954.0
20260502102418 58 45 7.0 7.0 0.00 0.00 0.00 49 954.0
20260502101918 58 22 4.0 4.0 0.00 0.00 0.00 49 954.0
20260502101417 58 45 3.0 4.0 0.00 0.00 0.00 50 954.0
20260502100431 57 45 2.0 6.0 0.00 0.00 0.00 52 954.0
20260502090922 56 45 0.0 5.0 0.00 0.00 0.00 55 955.0
20260502090417 56 45 0.0 7.0 0.00 0.00 0.00 55 955.0
20260502070931 54 22 0.0 4.0 0.00 0.00 0.00 65 955.0
20260502070431 54 22 4.0 4.0 0.00 0.00 0.00 66 955.0
20260502065917 53 22 3.0 4.0 0.00 0.00 0.00 67 955.0
20260502064920 51 22 0.0 2.0 0.00 0.00 0.00 71 955.0
20260502063919 50 45 0.0 1.0 0.00 0.00 0.00 74 955.0
20260502063417 48 45 0.0 1.0 0.00 0.00 0.00 75 955.0
20260502062918 47 45 0.0 0.0 0.00 0.00 0.00 75 955.0
20260502061931 46 45 0.0 2.0 0.00 0.00 0.00 76 955.0
20260502061418 46 45 0.0 2.0 0.00 0.00 0.00 76 955.0
20260502060917 46 45 0.0 2.0 0.00 0.00 0.00 76 955.0
20260502060422 46 45 0.0 3.0 0.00 0.00 0.00 75 955.0
20260502055919 45 45 0.0 3.0 0.00 0.00 0.00 75 955.0
20260502055424 45 45 3.0 3.0 0.00 0.00 0.00 75 955.0
20260502054417 45 45 0.0 0.0 0.00 0.00 0.00 76 955.0
20260502052918 44 45 0.0 0.0 0.00 0.00 0.00 76 955.0
20260502051917 44 45 0.0 2.0 0.00 0.00 0.00 76 955.0
20260502051418 44 45 0.0 2.0 0.00 0.00 0.00 76 955.0
20260502050922 44 45 0.0 2.0 0.00 0.00 0.00 76 955.0
20260502050418 44 45 0.0 0.0 0.00 0.00 0.00 76 955.0
20260502043918 44 45 0.0 0.0 0.00 0.00 0.00 76 955.0
20260502042921 44 45 0.0 0.0 0.00 0.00 0.00 76 954.0
20260502042422 44 45 0.0 0.0 0.00 0.00 0.00 76 954.0
20260502041921 44 45 0.0 0.0 0.00 0.00 0.00 76 954.0
20260502040937 44 45 0.0 2.0 0.00 0.00 0.00 76 954.0
20260502040437 44 45 0.0 2.0 0.00 0.00 0.00 76 954.0
20260502035917 43 45 0.0 0.0 0.00 0.00 0.00 76 954.0
20260502034917 44 45 0.0 2.0 0.00 0.00 0.00 76 954.0
20260502034422 44 45 0.0 2.0 0.00 0.00 0.00 76 954.0
20260502033926 44 45 0.0 2.0 0.00 0.00 0.00 76 954.0
20260502033417 44 45 0.0 2.0 0.00 0.00 0.00 76 954.0
20260502031937 43 45 0.0 0.0 0.00 0.00 0.00 76 954.0
20260502031421 43 45 0.0 1.0 0.00 0.00 0.00 76 954.0
20260502030918 43 45 0.0 2.0 0.00 0.00 0.00 76 954.0
20260502025923 43 45 2.0 3.0 0.00 0.00 0.00 76 954.0
20260502025421 43 45 0.0 3.0 0.00 0.00 0.00 76 954.0
20260502024923 43 45 1.0 2.0 0.00 0.00 0.00 76 954.0
20260502024416 43 45 0.0 0.0 0.00 0.00 0.00 76 954.0
20260502023937 43 45 0.0 0.0 0.00 0.00 0.00 76 954.0
20260502023434 43 45 0.0 3.0 0.00 0.00 0.00 76 954.0
20260502022916 43 45 0.0 3.0 0.00 0.00 0.00 76 954.0
20260502022417 43 45 3.0 3.0 0.00 0.00 0.00 76 954.0
20260502021919 43 45 0.0 0.0 0.00 0.00 0.00 76 954.0
20260502021423 44 45 0.0 0.0 0.00 0.00 0.00 76 954.0
20260502020925 44 45 0.0 0.0 0.00 0.00 0.00 76 954.0
20260502020418 44 45 0.0 0.0 0.00 0.00 0.00 76 954.0
20260502015437 43 45 0.0 0.0 0.00 0.00 0.00 76 954.0
20260502014935 43 45 0.0 0.0 0.00 0.00 0.00 76 954.0
20260502013919 43 45 0.0 0.0 0.00 0.00 0.00 76 954.0
20260502013419 43 45 0.0 0.0 0.00 0.00 0.00 76 954.0
20260502012928 43 45 0.0 0.0 0.00 0.00 0.00 76 954.0
20260502011918 43 45 0.0 0.0 0.00 0.00 0.00 76 954.0
20260502011419 43 45 0.0 0.0 0.00 0.00 0.00 76 954.0
20260502010938 43 45 0.0 0.0 0.00 0.00 0.00 76 954.0
20260502005919 43 45 0.0 0.0 0.00 0.00 0.00 76 954.0
20260502004919 42 45 0.0 0.0 0.00 0.00 0.00 76 954.0
20260502003928 42 45 0.0 0.0 0.00 0.00 0.00 76 954.0
20260502003422 42 45 0.0 0.0 0.00 0.00 0.00 76 954.0
20260502002919 43 45 0.0 0.0 0.00 0.00 0.00 75 954.0